Wind_Speed
29 29 29 25 26 24 26 26 26 25 29 31 33 36 41 43 46 49 52 53 48 37 20 7 3 3 10 20 25 27 28 37 53 69 82 83 84 79 83 83 74 92 81 70
24 28 27 26 28 24 25 26 24 26 26 29 31 33 38 39 42 44 48 51 51 45 33 14 3 1 7 16 27 33 34 39 48 65 77 81 78 72 78 76 73 81 83 95
24 25 24 25 25 23 23 24 23 24 25 25 29 30 33 35 37 40 42 46 49 48 43 29 9 1 3 12 24 34 38 39 47 62 70 75 73 68 70 74 75 73 76 76
28 26 24 24 23 21 19 24 23 23 23 24 24 28 29 32 34 35 37 40 44 46 47 42 27 6 3 7 16 28 38 40 41 58 66 68 69 64 66 69 71 70 69 70
30 28 24 25 22 22 20 24 22 22 22 22 21 25 27 29 30 32 33 35 38 42 44 45 41 27 6 5 9 19 32 41 43 48 64 64 64 63 64 67 68 68 66 65
32 31 26 23 22 23 21 21 22 24 22 20 20 20 24 26 27 28 31 31 33 36 38 41 42 39 29 8 8 11 20 35 45 50 60 66 65 63 63 67 69 67 66 65
30 32 24 28 22 22 22 21 23 23 19 18 20 19 21 24 26 26 27 30 30 31 33 35 37 39 37 29 13 9 16 21 35 49 55 66 71 68 66 67 71 72 68 67
30 31 29 27 25 23 23 23 23 20 17 17 19 19 20 21 24 26 27 27 29 29 30 31 32 34 35 34 28 16 9 20 25 35 50 56 63 74 74 71 72 75 75 72
32 30 31 34 26 25 23 24 22 19 19 18 19 20 20 21 23 24 25 26 27 27 28 28 30 30 30 31 30 27 17 10 23 31 37 52 61 65 71 79 78 78 78 77
35 28 31 34 26 27 25 24 23 21 20 19 19 21 21 22 22 24 24 25 25 26 27 27 26 28 29 28 28 26 25 19 13 21 35 41 53 65 70 74 79 84 84 83
36 30 30 30 28 28 28 26 25 25 23 21 21 24 23 24 24 25 25 26 26 25 26 27 26 26 27 26 27 27 26 23 21 16 22 36 46 53 68 74 78 82 86 89
32 32 30 28 29 29 29 29 29 27 26 25 24 25 26 27 26 26 27 27 28 28 28 28 27 26 28 27 26 27 27 26 26 22 19 25 37 51 57 69 77 81 85 88
30 30 27 26 30 30 29 32 32 29 27 27 27 28 28 29 29 29 29 30 30 31 32 32 31 29 29 29 29 29 31 31 29 28 25 24 31 42 55 62 70 79 83 88
29 26 26 28 30 30 32 34 33 32 29 29 30 30 31 31 31 32 33 34 34 34 34 35 34 31 32 32 34 34 34 36 35 34 32 30 31 38 48 60 67 70 79 83
23 23 25 23 27 32 33 34 35 35 33 34 33 32 32 32 32 32 34 36 36 37 38 37 36 35 35 36 38 39 39 41 41 39 38 37 35 38 46 55 65 72 74 78
18 23 23 29 30 32 34 36 33 32 33 33 33 33 34 34 35 34 35 37 39 40 40 39 38 39 40 40 42 44 44 46 46 44 43 42 41 41 44 53 60 70 76 77
24 25 30 30 28 23 26 29 28 32 31 31 31 32 33 35 35 37 38 39 39 40 41 41 41 43 44 45 47 48 49 50 50 48 47 46 45 45 45 51 56 63 72 80
28 26 24 30 33 26 27 28 33 33 32 32 32 32 33 35 37 38 39 40 41 41 41 43 45 46 47 49 51 52 52 53 52 51 49 49 47 46 45 48 53 57 63 71
24 24 30 34 33 31 31 33 32 33 32 32 34 34 35 36 37 38 40 42 42 43 44 46 47 49 51 53 54 55 55 54 53 51 50 48 46 45 44 46 49 52 56 61
26 31 32 34 38 38 40 40 37 35 33 34 36 36 36 37 38 40 42 43 43 45 47 48 51 53 54 56 57 57 55 53 51 50 48 45 44 43 42 43 44 47 50 53
35 35 37 34 34 39 43 39 36 37 36 37 35 34 36 38 40 42 43 44 46 47 50 52 54 55 57 58 57 55 53 50 48 46 44 42 40 39 39 39 40 42 45 48
34 33 35 39 38 39 39 35 33 33 34 35 36 37 39 40 42 43 45 46 48 51 53 55 56 58 58 55 54 51 48 45 43 40 39 38 37 37 36 36 36 38 41 44
30 32 34 40 42 45 38 36 33 33 34 36 38 40 42 43 44 45 47 49 52 53 55 57 58 57 54 51 48 45 42 39 37 35 35 34 34 33 34 34 34 36 38 39
35 34 35 36 38 37 37 35 34 35 37 40 42 45 45 45 47 49 50 52 53 56 57 56 55 52 49 45 43 40 37 34 32 31 32 31 31 32 32 33 33 34 36 36
36 41 39 35 33 35 35 35 37 39 41 44 46 46 47 48 49 51 52 54 55 55 53 51 49 46 43 40 36 34 32 31 30 31 32 33 33 33 34 34 35 35 36 36
30 28 28 29 30 31 33 36 39 41 43 44 45 47 48 49 50 52 54 53 52 50 49 46 43 40 37 34 31 30 30 31 33 34 35 36 37 38 39 39 40 40 39 39
18 20 23 25 28 31 35 38 41 41 42 45 47 47 48 51 52 52 51 50 49 46 44 41 37 34 31 29 28 30 31 31 31 31 32 33 34 36 37 39 41 42 44 44
Wind_Direction
298 297 295 292 291 295 298 305 313 321 326 332 342 348 355 360 3 6 9 14 16 13 6 4 30 121 177 173 168 173 182 196 205 199 201 204 210 210 211 214 217 221 225 223
295 292 294 292 290 292 294 300 309 316 322 330 338 350 353 359 1 6 9 14 16 19 16 8 18 101 160 183 177 173 178 186 200 201 203 206 212 213 213 215 219 219 225 224
295 292 292 287 284 284 288 294 301 308 317 328 336 348 350 355 360 4 9 13 16 18 20 20 14 174 162 178 186 182 177 184 195 200 204 210 214 214 215 219 222 226 226 229
299 300 296 290 281 276 277 286 293 301 312 321 333 339 347 353 357 1 7 12 16 18 18 22 24 14 199 176 183 189 184 182 195 202 206 212 217 217 216 220 224 228 230 231
301 297 297 296 284 271 273 281 290 295 307 313 326 332 342 348 354 358 4 10 14 18 19 18 22 26 14 216 187 188 192 187 190 206 208 213 218 220 220 222 225 227 230 230
296 295 299 293 279 268 272 274 282 290 297 305 314 326 333 339 347 353 358 7 11 16 20 20 19 21 24 12 229 203 197 198 193 198 213 216 219 222 223 223 226 229 232 232
287 286 289 284 282 274 269 278 281 287 295 300 308 318 324 331 335 343 351 359 7 10 17 19 19 19 22 20 8 249 221 209 207 201 204 219 222 223 224 226 227 229 232 234
282 285 283 281 278 273 273 281 286 288 293 298 304 312 316 321 326 333 340 348 356 3 8 15 15 15 19 21 20 6 268 231 221 215 209 209 220 227 227 227 229 230 232 234
289 283 280 275 275 270 271 278 282 287 294 297 298 303 310 314 317 322 330 337 344 350 356 3 8 7 10 14 16 15 3 306 238 229 221 218 214 217 224 229 230 232 233 234
280 280 269 271 276 274 273 277 283 283 283 288 295 299 303 307 310 313 320 327 334 338 344 347 356 359 359 5 4 6 5 359 312 252 234 227 223 220 219 221 227 230 233 235
267 277 263 264 265 273 273 275 280 280 281 286 292 295 298 300 304 305 310 316 322 327 331 334 339 345 347 355 353 351 351 351 348 315 269 240 233 228 226 223 222 224 229 232
274 274 272 265 267 265 269 273 278 281 285 288 293 294 295 295 297 298 302 308 312 317 320 321 325 330 331 340 341 339 338 337 336 330 306 272 248 235 232 229 227 224 223 226
275 271 270 263 263 261 262 266 272 276 282 289 291 293 293 291 292 296 299 302 305 308 312 313 316 320 319 327 329 329 328 326 325 322 313 291 266 251 238 234 232 230 226 223
267 266 256 252 251 251 257 265 273 278 282 288 289 290 292 292 292 293 295 299 301 302 305 307 308 311 312 316 319 320 320 319 317 316 312 300 279 261 250 240 235 234 232 229
261 259 248 232 240 251 261 268 275 282 285 290 291 286 286 288 290 292 293 295 297 299 300 300 302 305 307 310 313 314 315 314 312 311 308 301 286 269 256 248 240 234 234 232
245 233 225 232 248 258 266 272 282 286 293 295 293 290 288 289 290 291 292 294 297 298 296 297 300 302 305 308 309 310 311 311 309 307 304 298 288 275 262 252 245 238 234 232
238 234 228 242 248 257 271 278 286 293 296 296 293 291 288 289 290 291 294 296 297 297 296 296 299 301 304 305 306 307 308 309 307 305 302 295 286 276 266 256 250 242 237 234
243 233 221 241 249 255 274 283 285 286 289 294 295 293 291 290 289 290 291 293 294 294 294 295 298 301 303 304 304 306 307 306 305 302 298 291 284 276 267 259 254 250 242 236
217 223 230 245 255 258 269 281 283 285 288 295 295 292 290 288 288 289 291 292 293 293 294 297 301 302 302 303 305 306 306 305 302 299 293 287 281 276 269 262 257 253 249 243
239 240 246 257 262 264 275 282 282 285 293 300 298 293 290 289 290 291 292 293 294 295 298 301 302 301 303 305 306 305 305 303 299 294 288 284 279 275 270 264 259 255 253 248
261 263 259 262 268 270 275 282 283 284 288 296 295 291 291 291 292 293 294 295 297 300 302 302 302 304 306 305 305 305 302 299 294 289 285 281 277 273 270 266 262 256 253 252
258 264 267 265 270 276 285 290 290 285 285 287 288 291 293 294 295 295 297 300 302 302 302 303 305 305 305 306 304 302 299 294 291 287 284 280 276 272 269 265 261 257 254 252
257 264 269 270 273 278 284 289 285 283 282 284 289 293 295 297 298 301 302 303 303 304 305 306 305 306 306 304 302 299 295 292 289 286 282 279 276 274 271 268 264 259 257 255
255 267 279 280 278 282 287 286 283 284 285 286 289 294 299 301 302 303 303 303 305 306 306 306 305 305 304 303 299 296 294 291 288 284 281 279 277 275 272 269 266 263 260 257
274 277 282 280 282 285 287 285 286 286 286 289 296 300 301 303 303 304 305 306 306 305 306 306 305 305 303 300 298 295 292 288 286 283 281 279 276 274 271 268 265 262 259 257
278 276 275 278 280 282 283 285 286 288 293 298 299 301 302 303 304 305 305 306 306 307 306 306 305 303 302 300 297 294 293 291 288 285 282 280 277 274 271 268 266 264 261 258
279 279 281 284 285 285 285 287 292 296 299 300 301 302 303 304 304 306 307 307 308 307 307 305 304 303 301 299 298 297 297 294 292 290 287 283 280 277 274 271 268 265 262 258
Height
5565 5560 5558 5557 5554 5552 5548 5546 5542 5539 5530 5525 5518 5510 5500 5490 5479 5468 5455 5442 5430 5420 5413 5411 5408 5406 5404 5404 5405 5411 5418 5428 5440 5457 5477 5492 5505 5521 5536 5547 5558 5569 5580 5594
5560 5553 5551 5549 5545 5545 5542 5539 5537 5532 5528 5521 5514 5507 5498 5490 5481 5471 5461 5448 5437 5427 5418 5414 5413 5411 5409 5408 5409 5412 5419 5428 5441 5457 5474 5488 5500 5515 5528 5540 5550 5561 5571 5581
5551 5547 5544 5543 5539 5538 5536 5533 5531 5527 5523 5518 5510 5504 5498 5490 5483 5474 5465 5454 5444 5433 5425 5418 5415 5414 5413 5413 5414 5416 5420 5429 5440 5455 5471 5484 5496 5510 5522 5532 5543 5552 5561 5571
5540 5538 5537 5534 5532 5531 5530 5526 5525 5521 5518 5513 5508 5501 5496 5490 5483 5476 5468 5459 5449 5440 5431 5423 5419 5417 5417 5417 5417 5420 5423 5428 5439 5453 5466 5478 5490 5503 5515 5524 5534 5542 5552 5563
5530 5530 5530 5525 5524 5523 5523 5520 5519 5516 5513 5509 5504 5498 5494 5489 5483 5477 5470 5463 5455 5446 5438 5429 5423 5419 5418 5419 5420 5422 5425 5429 5436 5449 5463 5473 5483 5495 5506 5515 5524 5534 5544 5553
5523 5519 5519 5519 5518 5516 5515 5515 5512 5510 5507 5504 5500 5496 5491 5487 5482 5477 5470 5465 5458 5451 5444 5436 5429 5424 5421 5420 5421 5424 5427 5430 5434 5442 5456 5468 5477 5487 5497 5507 5516 5523 5532 5542
5515 5510 5514 5509 5509 5509 5508 5510 5505 5503 5500 5497 5494 5492 5488 5484 5480 5475 5470 5465 5459 5453 5448 5442 5436 5431 5426 5423 5421 5423 5426 5430 5434 5438 5444 5457 5467 5477 5486 5495 5504 5514 5521 5530
5507 5504 5503 5502 5501 5501 5500 5498 5496 5494 5492 5490 5487 5485 5483 5480 5476 5472 5467 5463 5459 5454 5450 5445 5441 5436 5431 5428 5426 5424 5424 5427 5431 5436 5439 5444 5453 5465 5474 5484 5492 5501 5509 5519
5498 5497 5493 5489 5491 5491 5491 5491 5488 5486 5484 5483 5480 5478 5476 5474 5471 5468 5464 5461 5457 5453 5449 5445 5441 5438 5434 5431 5428 5425 5423 5423 5426 5430 5434 5437 5441 5447 5457 5468 5478 5487 5496 5504
5484 5487 5482 5480 5482 5480 5481 5481 5480 5478 5477 5476 5474 5471 5469 5467 5465 5462 5460 5456 5453 5450 5446 5443 5440 5436 5433 5431 5429 5426 5424 5422 5421 5422 5425 5429 5432 5435 5440 5447 5458 5469 5478 5488
5474 5474 5471 5472 5472 5472 5472 5472 5472 5470 5469 5468 5466 5464 5462 5459 5458 5456 5454 5451 5448 5445 5442 5439 5437 5434 5429 5427 5425 5422 5421 5419 5417 5415 5415 5417 5421 5424 5427 5431 5438 5446 5456 5466
5462 5462 5463 5463 5462 5462 5463 5463 5463 5462 5461 5459 5458 5455 5454 5452 5451 5449 5446 5444 5441 5438 5436 5433 5431 5428 5424 5421 5419 5416 5414 5413 5410 5408 5407 5405 5406 5410 5413 5416 5421 5426 5433 5442
5451 5450 5452 5453 5452 5452 5453 5453 5452 5452 5453 5451 5450 5448 5447 5444 5443 5441 5439 5436 5434 5431 5428 5426 5423 5421 5417 5414 5411 5408 5404 5402 5401 5399 5396 5394 5393 5393 5396 5400 5403 5408 5414 5421
5440 5440 5440 5439 5440 5443 5443 5443 5443 5443 5443 5442 5441 5439 5438 5436 5434 5432 5429 5427 5425 5423 5420 5416 5413 5411 5407 5404 5401 5398 5394 5391 5387 5385 5383 5381 5379 5377 5377 5380 5384 5388 5394 5401
5430 5430 5429 5430 5432 5432 5433 5433 5433 5434 5434 5432 5431 5429 5428 5426 5424 5422 5419 5417 5414 5412 5409 5406 5402 5399 5395 5392 5389 5385 5381 5377 5373 5370 5367 5364 5363 5361 5358 5358 5362 5368 5373 5379
5419 5421 5422 5423 5424 5424 5425 5425 5425 5425 5424 5422 5420 5419 5418 5416 5414 5412 5409 5406 5404 5401 5398 5394 5390 5386 5383 5379 5375 5371 5367 5362 5358 5353 5350 5346 5343 5341 5340 5339 5340 5343 5350 5357
5410 5412 5415 5415 5416 5417 5417 5415 5414 5413 5412 5411 5410 5409 5407 5405 5403 5401 5398 5395 5392 5388 5385 5381 5377 5373 5368 5364 5360 5355 5350 5346 5341 5335 5331 5327 5324 5321 5319 5317 5318 5322 5326 5333
5400 5403 5406 5407 5408 5409 5409 5407 5406 5405 5403 5402 5400 5398 5396 5394 5391 5388 5385 5382 5379 5375 5370 5367 5363 5358 5353 5348 5343 5338 5332 5327 5321 5316 5312 5308 5304 5301 5300 5298 5297 5299 5304 5310
5392 5395 5396 5397 5398 5399 5399 5399 5397 5396 5394 5391 5389 5386 5384 5382 5379 5376 5373 5369 5365 5361 5356 5352 5347 5342 5337 5331 5325 5319 5314 5308 5302 5296 5291 5288 5284 5282 5281 5280 5280 5280 5283 5287
5387 5388 5390 5390 5389 5389 5389 5388 5386 5385 5383 5380 5377 5375 5372 5369 5367 5363 5360 5356 5351 5347 5342 5337 5331 5325 5319 5312 5306 5300 5294 5288 5283 5278 5273 5269 5266 5264 5263 5263 5264 5264 5265 5267
5379 5380 5381 5381 5380 5379 5378 5377 5376 5374 5372 5370 5367 5364 5361 5358 5354 5349 5345 5341 5337 5331 5326 5320 5314 5307 5300 5294 5287 5281 5274 5269 5264 5260 5255 5252 5250 5248 5247 5247 5247 5248 5250 5251
5367 5369 5371 5371 5370 5369 5368 5366 5364 5363 5361 5359 5356 5352 5348 5344 5340 5335 5331 5326 5320 5314 5309 5302 5295 5289 5282 5276 5268 5263 5257 5251 5247 5243 5240 5238 5236 5234 5233 5233 5233 5234 5235 5237
5359 5359 5360 5360 5360 5359 5358 5356 5353 5352 5349 5347 5343 5340 5335 5331 5326 5321 5315 5310 5304 5298 5291 5284 5277 5271 5265 5257 5251 5245 5241 5236 5232 5229 5226 5224 5222 5221 5220 5220 5221 5221 5222 5224
5352 5354 5353 5352 5351 5349 5347 5345 5343 5341 5338 5335 5331 5326 5321 5316 5311 5306 5300 5294 5287 5280 5274 5267 5260 5254 5247 5241 5236 5231 5226 5222 5220 5217 5214 5213 5211 5210 5209 5209 5209 5210 5211 5212
5345 5344 5343 5342 5340 5338 5337 5335 5332 5329 5325 5321 5317 5312 5307 5302 5296 5290 5284 5277 5271 5265 5258 5250 5243 5238 5232 5227 5222 5218 5214 5211 5209 5206 5204 5202 5200 5199 5198 5197 5197 5197 5198 5199
5336 5335 5333 5332 5330 5328 5326 5323 5320 5316 5312 5307 5302 5297 5292 5286 5280 5274 5268 5262 5255 5248 5242 5236 5229 5223 5218 5214 5210 5207 5204 5201 5198 5195 5192 5189 5187 5186 5185 5184 5184 5184 5185 5186
5327 5326 5324 5322 5320 5317 5314 5311 5307 5303 5298 5293 5288 5283 5277 5271 5265 5258 5252 5246 5239 5233 5227 5222 5216 5212 5207 5203 5200 5197 5193 5190 5186 5182 5180 5177 5174 5172 5170 5169 5168 5168 5168 5170